Valley City, ND

6:56 AM CST on November 15, 2019 (GMT -0600)
Valley City

Weather History for KBAC - August, 2019

Change the Weather History Date:

Friday, August 2, 2019

  Actual Average (WUND) Record (WUND)
Temperature  
Mean Temperature 72 °F -  
Max Temperature 80 °F - - (-1)
Min Temperature 64 °F - - (-1)
Cooling Degree Days 7    
Growing Degree Days 22 (Base 50)    
Moisture  
Dew Point 68 °F    
Average Humidity 89    
Maximum Humidity 100    
Minimum Humidity 65    
Precipitation  
Precipitation 0.00 in - - ()
Sea Level Pressure  
Sea Level Pressure 30.11 in    
Wind  
Wind Speed 7 mph (SE)    
Max Wind Speed 21 mph    
Max Gust Speed 30 mph    
Visibility 9 miles    
Events Rain , Thunderstorm    
Averages and records for this station are not official NWS values.
T = Trace of Precipitation, MM = Missing Value Source: NWS Daily Summary

Daily Weather History Graph

Daily Weather History Graph

Search for Another Location

Airport or City:

Astronomy

Aug. 02, 2019 Rise Set
Actual Time 6:12 AM CDT 9:03 PM CDT
Civil Twilight 5:37 AM CDT 9:38 PM CDT
Nautical Twilight 4:52 AM CDT 10:23 PM CDT
Astronomical Twilight 3:58 AM CDT 11:16 PM CDT
Moon 7:56 AM CDT (8/2) 10:26 PM CDT (8/2)
Length of Visible Light 16h 00m
Length of Day
14h 50m
Waxing Crescent, 4% of the Moon is Illuminated
Aug 2
Waxing Crescent
Aug 7
First Quarter
Aug 15
Full
Aug 23
Last Quarter
Aug 30
New

Hourly Weather History & Observations

Time (CDT) Temp. Heat Index Dew Point Humidity Pressure Visibility Wind Dir Wind Speed Gust Speed Precip Events Conditions
12:15 AM 71.6 °F - 71.6 °F 100% 30.11 in 10.0 mi Calm Calm - N/A   Overcast
12:35 AM 71.6 °F - 71.6 °F 100% 30.12 in 10.0 mi Calm Calm - N/A   Overcast
12:55 AM 71.6 °F - 71.6 °F 100% 30.12 in 10.0 mi South 4.6 mph - N/A   Overcast
1:15 AM 71.6 °F - 71.6 °F 100% 30.11 in 8.0 mi South 4.6 mph - N/A   Light Drizzle
1:35 AM - - - N/A% 30.10 in 9.0 mi Calm Calm - N/A   Overcast
1:55 AM 69.8 °F - 69.8 °F 100% 30.12 in 6.0 mi SW 19.6 mph 26.5 mph N/A Thunderstorm Thunderstorm
2:15 AM 68.0 °F - 66.2 °F 94% 30.09 in 6.0 mi WSW 20.7 mph 29.9 mph N/A Rain , Thunderstorm Light Thunderstorms and Rain
2:35 AM 68.0 °F - 68.0 °F 100% 30.11 in 6.0 mi NW 16.1 mph - N/A Rain , Thunderstorm Light Thunderstorms and Rain
2:55 AM 68.0 °F - 68.0 °F 100% 30.14 in 7.0 mi West 9.2 mph - N/A Rain Light Rain
3:15 AM 66.2 °F - 66.2 °F 100% 30.13 in 6.0 mi SSE 4.6 mph - N/A Rain , Thunderstorm Rain
3:35 AM 66.2 °F - 66.2 °F 100% 30.12 in 6.0 mi Calm Calm - N/A Rain Light Rain
3:55 AM 66.2 °F - 66.2 °F 100% 30.11 in 9.0 mi NW 5.8 mph - N/A Thunderstorm Drizzle
4:15 AM 64.4 °F - 64.4 °F 100% 30.11 in 9.0 mi ESE 8.1 mph - N/A   Light Drizzle
4:35 AM 64.4 °F - 64.4 °F 100% 30.13 in 5.0 mi Variable 3.5 mph - N/A Rain Light Rain
4:55 AM 64.4 °F - 64.4 °F 100% 30.13 in 10.0 mi South 5.8 mph 12.7 mph N/A   Overcast
5:15 AM 64.4 °F - 64.4 °F 100% 30.12 in 10.0 mi ESE 5.8 mph - N/A   Overcast
5:35 AM 64.4 °F - 64.4 °F 100% 30.11 in 10.0 mi ESE 4.6 mph - N/A   Light Drizzle
5:55 AM 66.2 °F - 66.2 °F 100% 30.10 in 10.0 mi Calm Calm - N/A   Overcast
6:15 AM 64.4 °F - 64.4 °F 100% 30.10 in 10.0 mi ENE 5.8 mph - N/A   Mostly Cloudy
6:35 AM 64.4 °F - 64.4 °F 100% 30.11 in 9.0 mi East 10.4 mph - N/A   Light Drizzle
6:55 AM 66.2 °F - 66.2 °F 100% 30.11 in 10.0 mi East 9.2 mph 15.0 mph N/A   Overcast
7:15 AM 66.2 °F - 66.2 °F 100% 30.11 in 10.0 mi East 10.4 mph - N/A   Overcast
7:35 AM 68.0 °F - 68.0 °F 100% 30.12 in 10.0 mi ESE 5.8 mph 11.5 mph N/A   Overcast
8:15 AM 69.8 °F - 69.8 °F 100% 30.12 in 10.0 mi SE 9.2 mph - N/A   Partly Cloudy
8:35 AM 69.8 °F - 69.8 °F 100% 30.12 in 10.0 mi SSE 5.8 mph - N/A   Clear
8:55 AM 69.8 °F - 69.8 °F 100% 30.12 in 10.0 mi ESE 5.8 mph - N/A   Clear
9:15 AM 69.8 °F - 69.8 °F 100% 30.11 in 10.0 mi SE 5.8 mph - N/A   Scattered Clouds
9:35 AM 71.6 °F - 69.8 °F 94% 30.12 in 10.0 mi SE 6.9 mph - N/A   Mostly Cloudy
9:55 AM 73.4 °F - 69.8 °F 88% 30.12 in 10.0 mi SE 5.8 mph - N/A   Scattered Clouds
10:15 AM 73.4 °F - 69.8 °F 88% 30.12 in 10.0 mi Variable 6.9 mph - N/A   Scattered Clouds
10:35 AM 75.2 °F - 68.0 °F 78% 30.11 in 10.0 mi South 6.9 mph - N/A   Partly Cloudy
10:55 AM 77.0 °F - 68.0 °F 74% 30.12 in 10.0 mi SE 9.2 mph - N/A   Clear
11:15 AM 77.0 °F - 66.2 °F 69% 30.12 in 10.0 mi SE 12.7 mph - N/A   Clear
11:35 AM 77.0 °F - 66.2 °F 69% 30.12 in 10.0 mi ESE 15.0 mph - N/A   Clear
11:55 AM 77.0 °F - 66.2 °F 69% 30.13 in 10.0 mi SE 12.7 mph - N/A   Clear
12:15 PM 77.0 °F - 66.2 °F 69% 30.12 in 10.0 mi SE 12.7 mph - N/A   Clear
12:35 PM 78.8 °F - 68.0 °F 69% 30.12 in 10.0 mi East 12.7 mph - N/A   Partly Cloudy
12:55 PM 78.8 °F - 68.0 °F 69% 30.12 in 10.0 mi SE 13.8 mph - N/A   Scattered Clouds
1:15 PM 78.8 °F - 68.0 °F 69% 30.12 in 10.0 mi ESE 11.5 mph - N/A   Mostly Cloudy
1:35 PM 78.8 °F - 68.0 °F 69% 30.12 in 10.0 mi SE 8.1 mph 17.3 mph N/A   Mostly Cloudy
1:55 PM 78.8 °F - 66.2 °F 65% 30.12 in 10.0 mi ESE 8.1 mph 16.1 mph N/A   Scattered Clouds
2:15 PM 78.8 °F - 68.0 °F 69% 30.12 in 10.0 mi SE 10.4 mph - N/A   Partly Cloudy
2:35 PM 78.8 °F - 68.0 °F 69% 30.12 in 10.0 mi SE 10.4 mph - N/A   Mostly Cloudy
2:55 PM 78.8 °F - 66.2 °F 65% 30.11 in 10.0 mi ESE 10.4 mph - N/A   Scattered Clouds
3:15 PM 78.8 °F - 66.2 °F 65% 30.11 in 10.0 mi ESE 12.7 mph - N/A   Scattered Clouds
3:35 PM 80.6 °F 83.2 °F 68.0 °F 65% 30.11 in 8.0 mi ESE 10.4 mph - N/A   Partly Cloudy
3:55 PM 78.8 °F - 68.0 °F 69% 30.11 in - East 8.1 mph - N/A   Mostly Cloudy
4:15 PM 78.8 °F - 68.0 °F 69% 30.10 in 9.0 mi ESE 12.7 mph - N/A   Mostly Cloudy
4:35 PM 78.8 °F - 68.0 °F 69% 30.10 in 10.0 mi ESE 10.4 mph - N/A   Mostly Cloudy
4:55 PM 78.8 °F - 66.2 °F 65% 30.10 in 10.0 mi SE 11.5 mph - N/A   Scattered Clouds
5:15 PM 80.6 °F 83.2 °F 68.0 °F 65% 30.09 in 10.0 mi SE 8.1 mph - N/A   Partly Cloudy
5:35 PM 78.8 °F - 68.0 °F 69% 30.09 in 10.0 mi ESE 10.4 mph - N/A   Partly Cloudy
5:55 PM 75.2 °F - 71.6 °F 89% 30.10 in 10.0 mi East 9.2 mph - N/A   Mostly Cloudy
6:15 PM 71.6 °F - 71.6 °F 100% 30.10 in 6.0 mi SE 17.3 mph - N/A   Light Drizzle
6:35 PM 69.8 °F - 69.8 °F 100% 30.10 in 2.0 mi SE 10.4 mph - N/A Rain Light Rain
6:55 PM 71.6 °F - 71.6 °F 100% 30.10 in 7.0 mi ESE 6.9 mph - N/A   Scattered Clouds
7:15 PM 71.6 °F - 71.6 °F 100% 30.09 in 10.0 mi ESE 8.1 mph - N/A   Mostly Cloudy
7:35 PM 71.6 °F - 71.6 °F 100% 30.09 in 10.0 mi East 4.6 mph - N/A   Overcast
7:55 PM 71.6 °F - 71.6 °F 100% 30.09 in 10.0 mi East 6.9 mph - N/A   Overcast
8:15 PM 71.6 °F - 71.6 °F 100% 30.10 in 10.0 mi East 4.6 mph - N/A   Overcast
8:35 PM 71.6 °F - 71.6 °F 100% 30.10 in 10.0 mi SE 6.9 mph - N/A   Mostly Cloudy
8:55 PM 71.6 °F - 71.6 °F 100% 30.10 in 10.0 mi ENE 3.5 mph - N/A   Partly Cloudy
9:15 PM 69.8 °F - 69.8 °F 100% 30.09 in 10.0 mi SE 4.6 mph - N/A   Partly Cloudy
9:35 PM 69.8 °F - 69.8 °F 100% 30.09 in 10.0 mi Calm Calm - N/A   Partly Cloudy
9:55 PM 69.8 °F - 69.8 °F 100% 30.10 in 10.0 mi Calm Calm - N/A   Partly Cloudy
10:15 PM 69.8 °F - 69.8 °F 100% 30.11 in 10.0 mi ESE 3.5 mph - N/A   Mostly Cloudy
10:35 PM 69.8 °F - 69.8 °F 100% 30.11 in 10.0 mi East 4.6 mph - N/A   Partly Cloudy
10:55 PM 69.8 °F - 69.8 °F 100% 30.11 in 7.0 mi East 4.6 mph - N/A   Mostly Cloudy
11:15 PM 69.8 °F - 69.8 °F 100% 30.11 in 9.0 mi SE 4.6 mph - N/A   Overcast
11:35 PM 69.8 °F - 69.8 °F 100% 30.11 in 10.0 mi SE 4.6 mph - N/A   Mostly Cloudy
11:55 PM 69.8 °F - 69.8 °F 100% 30.11 in 10.0 mi South 6.9 mph - N/A   Partly Cloudy